Regional Weather Roundup
Issued by NWS Mobile, AL

Home | Current Version | Previous Version | Text Only | Print | Product List | Glossary Off
Versions: 1 2 3 4 5 6 7 8 9 10 11 12 13 14 15 16 17 18 19 20 21 22 23 24 25 26 27 28 29 30 31 32 33 34 35 36 37 38 39 40 41 42 43 44 45 46 47 48 49 50

000
ASUS44 KMOB 300810
RWRMOB
REGIONAL WEATHER ROUNDUP
NATIONAL WEATHER SERVICE MOBILE AL
300 AM CDT SAT AUG 30 2014

NOTE: "FAIR" INDICATES FEW OR NO CLOUDS BELOW 12,000 FEET WITH NO
      SIGNIFICANT WEATHER AND/OR OBSTRUCTIONS TO VISIBILITY.

  * THESE STATIONS ARE PART OF THE UNIVERSITY OF SOUTH ALABAMA
    MESONET AND ARE NOT UNDER NWS OR FAA QUALITY CONTROL.

ALZ061>064-300900-
COASTAL ALABAMA

CITY           SKY/WX    TMP DP  RH WIND       PRES   REMARKS
MOBILE REG APT MOCLDY    76  76 100 SE5       30.04F
BROOKLEY FIELD MOCLDY    81  76  84 S6        30.04F
USA CAMPUS*      N/A     77  75  94 CALM      30.03F
DOG RIVER*       N/A     81  77  89 S3        30.03F


CITY           SKY/WX    TMP DP  RH WIND       PRES   REMARKS
MOUNT VERNON*    N/A     73  72  94 CALM      30.04F
SARALAND*      NOT AVBL
BAY MINETTE*   NOT AVBL
LOXLEY*          N/A     72  70  94 CALM      30.04F
ROBERTSDALE*     N/A    N/A N/A N/A CALM      30.04F
FAIRHOPE*        N/A     75  73  94 E2        30.03F
ELBERTA*         N/A     75  63  64 CALM      30.03F
FOLEY*         NOT AVBL
GRAND BAY*       N/A     77  75  94 CALM      30.01F
DAUPHIN ISLND* NOT AVBL
BON SCOUR NWR* NOT AVBL
GULF SHORES    MOCLDY    80  75  85 S6        30.02F

$$

ALZ051>060-300900-
INTERIOR SOUTHWEST AND SOUTH CENTRAL ALABAMA

CITY           SKY/WX    TMP DP  RH WIND       PRES   REMARKS
GREENVILLE     CLOUDY    75  73  93 SE3       30.06S
EVERGREEN      CLOUDY    78  74  87 CALM      30.06F
CASTLEBERRY*   NOT AVBL
ATMORE*          N/A     73  73 100 CALM      30.06F
DIXIE*         NOT AVBL
ANDALUSIA/OPP  PTCLDY    78  73  84 CALM      30.06F
ANDALUSIA*     NOT AVBL
FLORALA APT    PTCLDY    75  72  90 CALM      30.07F
FLORALA*         N/A     75  73  94 CALM      30.03F

$$

FLZ001>006-300900-
WESTERN FLORIDA PANHANDLE

CITY           SKY/WX    TMP DP  RH WIND       PRES   REMARKS
PENSACOLA      CLOUDY    78  75  90 S3        30.04S
NAS PENSACOLA  MOCLDY    81  75  82 S9        30.03S
MILTON         CLOUDY    76  72  87 CALM      30.05F
WHTNG S FIELD    N/A    N/A N/A N/A MISG      30.05F


CITY           SKY/WX    TMP DP  RH WIND       PRES   REMARKS
WALNUT HILL*   NOT AVBL
JAY*           NOT AVBL
DUKE FIELD     CLOUDY    77  77  99 W5        30.05F
CRESTVIEW      PTCLDY    76  74  93 CALM      30.07S
VALPARAISO     MOCLDY    81  76  82 SW6       30.05S
DESTIN         MOCLDY    83  76  79 CALM      30.04F

$$

MSZ076-079-300900-
INTERIOR SOUTHEAST MISSISSIPPI

CITY           SKY/WX    TMP DP  RH WIND       PRES   REMARKS
LEAKESVILLE*   NOT AVBL
AGRICOLA*      NOT AVBL

$$

MARINE OBSERVATIONS

STATION/POSITION TIME  TEMP    WIND        PRES    WAVE
                       AIR SEA DIR/SP/G            HT/PER
                 (UTC) (F)     (DEG/KT/KT) (MB)    (FT/S)
PASCAGOULA       0800   83     160/ 10/ 13 1016.0F
PETIT BOIS ISLND 0800   82     150/ 11/ 13 1016.5F
GRAND BAY        0700   82     170/ 12     1018.0S
KATRINA CUT      0700   82     160/ 15     1017.3F
CEDAR POINT      0700   81     160/ 12     1016.6F
E DAUPHIN ISLAND 0700   82     160/ 17/ 19 1017.1F
MIDDLE BAY LIGHT 0700   83     160/ 15     1016.6F
USCG MOBILE BAY  0800   82 86  190/  4/  9 1015.8F
STATE DOCKS      0800   82 85              1016.7F
MEAHER PARK      0700   80     140/  7     1016.6F
WEEKS BAY        0700   74                   N/A
FORT MORGAN      0800   83     180/ 13/ 15 1016.2F
12 S ORANGE BCH  0800   82 85  160/ 12/ 14 1016.7F   2/ 7
PENSACOLA BAY    0800   83 85  170/  9/ 12 1017.3R
64 S DAUPHIN ISL 0800   82 84  170/ 10/ 12 1017.0F

$$

SELECTED LOCATIONS ACROSS THE REGION

CITY           SKY/WX    TMP DP  RH WIND       PRES   REMARKS
NEW ORLEANS    CLOUDY    79  75  87 SE7       29.99S
GULFPORT       MOCLDY    82  77  84 S6        30.00F
PASCAGOULA AP  MOCLDY    78  75  90 CALM      30.02F
PASCAGOULA*      N/A     81  77  89 S5        30.01F
HATTIESBURG    CLOUDY    76  74  93 CALM      30.03F
LAUREL         CLOUDY    73  72  94 CALM      30.04F
MERIDIAN       CLOUDY    76  72  87 S5        30.04F
JACKSON        CLOUDY    76  72  87 S6        30.01F
MONTGOMERY     PTCLDY    77  73  87 S5        30.07R
TROY           PTCLDY    76  73  91 CALM      30.08S
KINSTON*       NOT AVBL
GENEVA*          N/A     72  70  94 SE2       30.08F
ASHFORD*       NOT AVBL
DOTHAN         CLEAR     73  72  96 E5        30.12S
PANAMA CITY    PTCLDY    78  74  87 E5        30.04F

$$




USA.gov is the U.S. government's official web portal to all federal, state and local government web resources and services.